This demonstration page uses our WeatherBlox Daily Observations layout. Learn more.

Left ArrowRight Arrow

30.21309, -93.2044

Hourly Observations for March 9, 2015

Temp ( °F °C ) Dew Point ( °F °C ) Humidity (%) Winds ( mph kmh ) Pressure ( in mb ) Visibility ( mi km ) Precip ( " mm )
12:15 am 00:15 Cloudy 51 10.5 46 7.9 84 84 ENE 6 9 30.09 1019 10 16 0.00 0.00
12:35 am 00:35 Cloudy 51 10.7 46 7.6 81 81 ENE 7 11 30.09 1019 10 16 0.00 0.00
12:55 am 00:55 Cloudy 51 10.7 46 7.6 81 81 ENE 9 15 30.09 1019 10 16 0.00 0.00
1:15 am 01:15 Cloudy 52 10.9 45 7.3 79 79 ENE 7 11 30.09 1019 10 16 0.00 0.00
1:35 am 01:35 Cloudy 52 11 45 7.4 79 79 ENE 7 11 30.09 1019 10 16 0.00 0.00
1:55 am 01:55 Cloudy 52 11 45 7.1 77 77 ENE 7 11 30.09 1019 10 16 0.00 0.00
2:15 am 02:15 Cloudy 52 11 45 7.2 78 78 ENE 6 9 30.09 1019 10 16 0.00 0.00
2:35 am 02:35 Mostly Cloudy with Drizzle 52 11 46 7.5 79 79 ENE 6 9 30.06 1018 10 16 0.00 0.00
2:55 am 02:55 Mostly Cloudy with Light Rain 51 10.7 46 7.7 82 82 ENE 3 6 30.06 1018 10 16 0.00 0.00
3:15 am 03:15 Cloudy with Light Rain 51 10.5 46 8 85 85 ENE 7 11 30.06 1018 10 16 0.01 0.25
3:35 am 03:35 Cloudy with Light Rain 50 10 47 8.3 89 89 E 6 9 30.06 1018 10 16 0.02 0.51
3:55 am 03:55 Cloudy with Light Rain 50 10 47 8.5 91 91 ENE 5 7 30.06 1018 10 16 0.03 0.76
4:15 am 04:15 Cloudy with Light Rain 50 10 47 8.5 91 91 NE 5 7 30.06 1018 10 16 0.00 0.00
6:45 am 06:45 Mostly Cloudy 50 10 48 9 94 94 ENE 7 11 30.06 1018 10 16 0.00 0.00
7:45 am 07:45 Cloudy with Mist and Fog 52 11 48 9 88 88 ENE 7 11 30.06 1018 6 10 0.00 0.00
11:50 am 11:50 Cloudy 63 17 57 14 83 83 E 9 15 30.00 1016 10 16 0.00 0.00
12:50 pm 12:50 Cloudy 64 18 59 15 83 83 E 8 13 30.00 1016 10 16 0.00 0.00
1:50 pm 13:50 Cloudy 66 19 34 1 30 30 E 7 11 29.97 1015 10 16 0.00 0.00
2:50 pm 14:50 Cloudy 66 19 63 17 88 88 E 7 11 29.94 1014 10 16 0.00 0.00
3:50 pm 15:50 Cloudy 70 21 64 18 83 83 ESE 9 15 29.91 1013 10 16 0.00 0.00
4:50 pm 16:50 Cloudy 70 21 64 18 83 83 ESE 7 11 29.91 1013 10 16 0.00 0.00
6:55 pm 18:55 Cloudy with Light Rain 66 19 64 18 94 94 SE 7 11 29.88 1012 10 16 0.00 0.00
7:50 pm 19:50 Cloudy with Light Rain 66 19 64 18 94 94 SE 7 11 29.88 1012 10 16 0.00 0.00
8:50 pm 20:50 Cloudy with Light Rain 66 19 66 19 100 100 SE 6 9 29.88 1012 10 16 0.00 0.00
9:50 pm 21:50 Cloudy with Heavy Rain 66 19 66 19 100 100 S 5 7 29.88 1012 3 5 0.00 0.00
10:15 pm 22:15 Cloudy with Heavy Rain 66 18.8 65 18.6 99 99 S 5 7 29.88 1012 2 3 0.24 6.10
10:35 pm 22:35 Cloudy with Rain 67 19.3 66 19.1 99 99 SSW 8 13 29.91 1013 3 5 0.48 12.19
10:55 pm 22:55 Cloudy with Rain 66 19.1 64 18 93 93 S 16 26 29.91 1013 5 8 0.54 13.72
11:15 pm 23:15 Cloudy with Rain 66 19.1 66 18.7 98 98 SSW 18 30 29.91 1013 2 3 0.25 6.35
11:35 pm 23:35 Cloudy with Rain 66 19 65 18.5 97 97 SW 15 24 29.91 1013 10 16 0.28 7.11
11:55 pm 23:55 Cloudy with Light Rain 65 18.6 65 18.1 97 97 SSW 9 15 29.91 1013 10 16 0.30 7.62

Powered by AerisWeather